User: anonymous   Login
Location: Stull Observatory
(42.2506°N, 77.7903°W)
Time: 01:53:42
(UTC-05:00)
Language:

Abrixas rocket - Orbit

View from above orbital plane
View from above orbital plane
View from above satellite
View from above satellite

Ground track
Ground track

The orbit data is extracted from the following two-line orbital elements,

1 25723U 99022C   16044.09289916  .00016349  00000-0  33457-3 0  9998
2 25723  48.4178 246.0089 0013896 203.5897 300.1841 15.46052797930457
Epoch (UTC): 13 February 2016 02:13:46
Eccentricity: 0.0013896
inclination: 48.4178°
perigee height: 419 km
apogee height: 438 km
right ascension of ascending node: 246.0089°
argument of perigee: 203.5897°
revolutions per day: 15.46052797
mean anomaly at epoch: 300.1841°
orbit number at epoch: 93045

The dashed part of the orbit path shows where the satellite is in the earth's shadow,  

DLR